Regional Weather Roundup
Issued by NWS Upton, NY

Current Version | Previous Version | Text Only | Print | Product List | Glossary On
Versions: 1 2 3 4 5 6 7 8 9 10 11 12 13 14 15 16 17 18 19 20 21 22 23 24 25 26 27 28 29 30 31 32 33 34 35 36 37 38 39 40 41 42 43 44 45 46 47 48 49 50
000 ASUS41 KOKX 222007 RWROKX REGIONAL WEATHER ROUNDUP NATIONAL WEATHER SERVICE NEW YORK NY 400 PM EDT WED MAR 22 2017 NOTE: "FAIR" INDICATES FEW OR NO CLOUDS BELOW 12,000 FEET WITH NO SIGNIFICANT WEATHER AND/OR OBSTRUCTIONS TO VISIBILITY. NYZ071-072-176-178-NJZ106-104-222100- NEW YORK CITY METRO AREA CITY SKY/WX TMP DP RH WIND PRES REMARKS Central Park SUNNY 32 -5 20 NW9G35 30.24R WCI 24 Wall St Helipt CLEAR 39 6 25 VRB3 30.23R LaGuardia APRT NOT AVBL Kennedy INTL SUNNY 37 -4 17 NW26G36 30.20R WCI 25 Breezy Point N/A 32 N/A N/A NW23G31 N/A WCI 19 Newark/Liberty SUNNY 36 -4 18 NW25G38 30.23R WCI 24 Teterboro SUNNY 34 2 25 NW22G35 30.22R WCI 22 $$ NYZ177-179-078>081-222100- LONG ISLAND NEW YORK CITY SKY/WX TMP DP RH WIND PRES REMARKS Jones Beach N/A 32 N/A N/A NW32G39 N/A WCI 17 Matinecock PT NOT AVBL Farmingdale SUNNY 33 -5 19 NW18G31 30.18R WCI 22 MacArthur/ISP SUNNY 34 -5 18 NW30G40 30.14S WCI 20 Shirley SUNNY 33 -1 23 NW23G33 30.15R WCI 21 Westhampton SUNNY 32 -8 17 NW31G43 30.13S WCI 17 East Hampton N/A 31 -4 21 NW14G37 30.11R WCI 21 Montauk N/A 34 3 27 NW20G32 30.09R WCI 23 $$ NYZ052-065-067-222100- HUDSON VALLEY CITY SKY/WX TMP DP RH WIND PRES REMARKS White Plains SUNNY 31 -3 23 NW21G32 30.17R WCI 18 Newburgh SUNNY 28 1 31 NW23G40 30.21R WCI 14 Montgomery SUNNY 29 -4 24 N18G30 30.22R WCI 16 Poughkeepsie SUNNY 28 -3 26 NW20G31 30.22R WCI 15 Albany MOSUNNY 26 -2 29 NW22G29 30.26R WCI 12 $$ NJZ001-105-106-008-010-013-015-019>022-104-222100- NEW JERSEY CITY SKY/WX TMP DP RH WIND PRES REMARKS Newark/Liberty SUNNY 36 -4 18 NW25G38 30.23R WCI 24 Teterboro SUNNY 34 2 25 NW22G35 30.22R WCI 22 Caldwell SUNNY 33 0 24 NW18G35 30.24R WCI 22 Somerville SUNNY 34 2 25 NW21G38 30.24R WCI 22 Linden N/A 35 1 23 N21G31 30.24R WCI 24 Sussex SUNNY 29 0 28 NW14G23 30.24R WCI 18 Andover N/A 29 -1 27 NW13G28 30.24R WCI 19 Trenton SUNNY 35 5 28 N22G33 30.24R WCI 23 Millville SUNNY 41 4 21 NW20G33 30.23R Atlantic City SUNNY 42 6 22 NW22G36 30.21R Wrightstown SUNNY 36 4 25 NW28G35 30.21S WCI 24 Toms River SUNNY 37 3 24 NW22G32 30.22R WCI 26 Belmar SUNNY N/A N/A N/A NW25G33 30.21R $$ PAZ047>061-062-071-222100- EASTERN PENNSYLVANIA CITY SKY/WX TMP DP RH WIND PRES REMARKS Philadelphia SUNNY 40 7 25 N21 30.27R WCI 30 Allentown SUNNY 35 2 24 NW23G37 30.28R WCI 23 Scranton SUNNY 26 5 40 N24G33 30.29R WCI 11 $$ CTZ002-004>006-009-010-012-RIZ004-006-007-MAZ004-011-015-222100- SOUTHERN NEW ENGLAND IN CT CITY SKY/WX TMP DP RH WIND PRES REMARKS Bradley INTL SUNNY 28 -3 26 NW23G33 30.14R WCI 14 Hartford SUNNY 29 -1 27 W20G31 30.16R WCI 16 Danbury SUNNY 28 -4 25 N21G35 30.18R WCI 15 Wtrbury/Oxford SUNNY 25 -8 24 NW18G32 30.15R WCI 11 Bridgeport SUNNY 33 -5 19 NW21G38 30.16R WCI 21 Meriden SUNNY 29 -3 25 NW22G33 30.16R WCI 15 New Haven SUNNY 30 -7 20 NW21G38 30.16R WCI 17 Chester N/A 28 -6 22 NW20G38 30.11R WCI 15 Groton SUNNY 32 -5 20 NW29G40 30.08R WCI 18 Wilimantic SUNNY 31 -5 21 N23G33 30.10R WCI 18 IN RI CITY SKY/WX TMP DP RH WIND PRES REMARKS Providence MOSUNNY 33 -1 23 NW17G32 30.05R WCI 22 Block Island SUNNY 33 3 28 NW24G33 30.05R WCI 20 Westerly SUNNY 34 -4 19 NW17G31 30.07R WCI 23 IN MA CITY SKY/WX TMP DP RH WIND PRES REMARKS Boston MOSUNNY 29 -3 25 NW31G41 30.04R WCI 13 Worcester SUNNY 24 -7 25 NW23G38 30.01R WCI 9 Westfield SUNNY 27 -2 28 NW26G40 30.13R WCI 12 Provincetown SUNNY 29 10 45 NW31G40 29.99R WCI 13 Nantucket SUNNY 36 7 29 NW25G43 29.95R WCI 24 $$ ANZ330-335-338-340-345-350-353-355-222100- COASTAL MARINE OBSERVATIONS STATION/POSITION TIME SKY/WX TEMP WIND PRES VSBY WAVE AIR SEA DIR/SP/G HT/PER (UTC) (F) (DEG/KT/KT) (MB) (MI) (FT/S) NY HARB ENTRANCE 1850 33 42 310/ 25/ 31 1021.1 5/ 5 20 S FIRE ISLAND 1950 32 41 330/ 27/ 33 1020.7 8/ 6 GREAT SOUTH BAY NOT AVBL 23 SSW MONTAUK P 1850 31 42 1018.2 9/ 6 15 E BARNEGAT LI 1930 43 N/A 7/ 7 HUDSON CANYON 1850 35 45 320/ 31/ 39 1019.0 11/ 8 KINGS POINT 1948 31 39 1022.5 EXECUTION ROCKS NOT AVBL CENTRAL LI SOUND NOT AVBL EASTERN LI SOUND NOT AVBL ROBBINS REEF 1948 31 310/ 33/ 38 1022.9 $$ >>>>>>>>>>>>>>>>>>>>>>>>>>>> KEY <<<<<<<<<<<<<<<<<<<<<<<<<<< > < > SKY/WX - Sky Condition/Present Weather < > TMP - Temperature in Fahrenheit < > DP - Dew Point in Fahrenheit < > RH - Relative Humidity in Percent < > WIND - Direction (from) and Speed in MPH < > PRES - Mean Sea Level Pressure (inches of Hg) < > WCI - Wind Chill Index < > VSB - VISIBILITY IN MILES < > HX - HEAT INDEX < > TC - TEMPERATURE IN CELSIUS < > VRB - VARIABLE WIND DIRECTION < > < >>>>>>>>>>>>>>>>>>>>>>>>>>>> KEY <<<<<<<<<<<<<<<<<<<<<<<<<<<

USA.gov is the U.S. government's official web portal to all federal, state and local government web resources and services.